This is the latest recevied weather packets stored in our database for station/object WX2NJ. If no packets are shown the sender has not sent any weather packets the latest 10 day(s).
| Time | Temp. | Humidity | Pressure | Rain* | Wind** | Luminosity | Snow |
|---|---|---|---|---|---|---|---|
| 1777895913 | 13.89° C | 58% | 1018.7 hPa | 0 mm | - | 196 W/m² | - |
| 1777895610 | 13.89° C | 58% | 1018.8 hPa | 0 mm | - | 202 W/m² | - |
| 1777895307 | 13.89° C | 59% | 1018.7 hPa | 0 mm | - | 185 W/m² | - |
| 1777895005 | 13.89° C | 60% | 1018.8 hPa | 0 mm | - | 171 W/m² | - |
| 1777894702 | 13.33° C | 62% | 1018.6 hPa | 0 mm | - | 170 W/m² | - |
| 1777894399 | 12.78° C | 63% | 1018.8 hPa | 0 mm | - | 172 W/m² | - |
| 1777894097 | 12.78° C | 63% | 1018.9 hPa | 0 mm | - | 132 W/m² | - |
| 1777893793 | 12.78° C | 64% | 1018.8 hPa | 0 mm | - | 117 W/m² | - |
| 1777893489 | 12.22° C | 64% | 1018.9 hPa | 0 mm | - | 125 W/m² | - |
| 1777893186 | 12.22° C | 65% | 1019.1 hPa | 0 mm | - | 111 W/m² | - |
| 1777892882 | 12.22° C | 65% | 1019.2 hPa | 0 mm | - | 102 W/m² | - |
| 1777892579 | 11.67° C | 66% | 1019 hPa | 0 mm | - | 89 W/m² | - |
| 1777892274 | 11.11° C | 67% | 1019.2 hPa | 0 mm | - | 73 W/m² | - |
| 1777891971 | 10.56° C | 68% | 1019.2 hPa | 0 mm | - | 67 W/m² | - |
| 1777891669 | 10.56° C | 69% | 1019.2 hPa | 0 mm | - | 53 W/m² | - |
| 1777891365 | 10° C | 70% | 1019.2 hPa | 0 mm | - | 23 W/m² | - |
| 1777891060 | 9.44° C | 70% | 1019.1 hPa | 0 mm | - | 21 W/m² | - |
| 1777890755 | 9.44° C | 70% | 1019.2 hPa | 0 mm | - | 18 W/m² | - |
| 1777890451 | 9.44° C | 70% | 1019 hPa | 0 mm | - | 16 W/m² | - |
| 1777890147 | 9.44° C | 70% | 1018.8 hPa | 0 mm | - | 12 W/m² | - |
| 1777889844 | 9.44° C | 69% | 1018.8 hPa | 0 mm | - | 10 W/m² | - |
| 1777889542 | 9.44° C | 69% | 1018.8 hPa | 0 mm | - | 7 W/m² | - |
| 1777889239 | 8.89° C | 69% | 1018.9 hPa | 0 mm | - | 5 W/m² | - |
| 1777888937 | 8.89° C | 69% | 1018.8 hPa | 0 mm | - | 1 W/m² | - |
| 1777888634 | 8.89° C | 69% | 1018.8 hPa | 0 mm | - | 0 W/m² | - |
* Rain latest hour (hover to see other rain measurements)
** Current wind speed in m/s (hover to see current wind gust speed)